Year,Month,Day,Hour,Minute,Value (Times are PST for temperature in C)
2018,01,15,00,00,3.80
2018,01,15,00,01,3.80
2018,01,15,00,02,3.80
2018,01,15,00,03,3.80
2018,01,15,00,04,3.80
2018,01,15,00,05,3.80
2018,01,15,00,06,3.80
2018,01,15,00,07,3.80
2018,01,15,00,08,3.80
2018,01,15,00,09,3.80
2018,01,15,00,10,3.80
2018,01,15,00,11,3.80
2018,01,15,00,12,3.80
2018,01,15,00,13,3.80
2018,01,15,00,14,3.80
2018,01,15,00,15,3.80
2018,01,15,00,16,3.80
2018,01,15,00,17,3.80
2018,01,15,00,18,3.80
2018,01,15,00,19,3.80
2018,01,15,00,20,3.80
2018,01,15,00,21,3.80
2018,01,15,00,22,3.80
2018,01,15,00,23,3.80
2018,01,15,00,24,3.80
2018,01,15,00,25,3.80
2018,01,15,00,26,3.80
2018,01,15,00,27,3.80
2018,01,15,00,28,3.80
2018,01,15,00,29,3.80
2018,01,15,00,30,3.80
2018,01,15,00,31,3.80
2018,01,15,00,32,3.80
2018,01,15,00,33,3.80
2018,01,15,00,34,3.80
2018,01,15,00,35,3.80
2018,01,15,00,36,3.80
2018,01,15,00,37,3.80
2018,01,15,00,38,3.80
2018,01,15,00,39,3.80
2018,01,15,00,40,3.80
2018,01,15,00,41,3.80
2018,01,15,00,42,3.80
2018,01,15,00,43,3.80
2018,01,15,00,44,3.80
2018,01,15,00,45,3.80
2018,01,15,00,46,3.80
2018,01,15,00,47,3.80
2018,01,15,00,48,3.70
2018,01,15,00,49,3.80
2018,01,15,00,50,3.80
2018,01,15,00,51,3.80
2018,01,15,00,52,3.70
2018,01,15,00,53,3.70
2018,01,15,00,54,3.70
2018,01,15,00,55,3.70
2018,01,15,00,56,3.80
2018,01,15,00,57,3.80
2018,01,15,00,58,3.80
2018,01,15,00,59,3.80
2018,01,15,01,00,3.80
2018,01,15,01,01,3.80
2018,01,15,01,02,3.80
2018,01,15,01,03,3.80
2018,01,15,01,04,3.80
2018,01,15,01,05,3.80
2018,01,15,01,06,3.80
2018,01,15,01,07,3.80
2018,01,15,01,08,3.80
2018,01,15,01,09,3.80
2018,01,15,01,10,3.80
2018,01,15,01,11,3.80
2018,01,15,01,12,3.80
2018,01,15,01,13,3.80
2018,01,15,01,14,3.80
2018,01,15,01,15,3.80
2018,01,15,01,16,3.80
2018,01,15,01,17,3.80
2018,01,15,01,18,3.80
2018,01,15,01,19,3.80
2018,01,15,01,20,3.80
2018,01,15,01,21,3.80
2018,01,15,01,22,3.80
2018,01,15,01,23,3.80
2018,01,15,01,24,3.80
2018,01,15,01,25,3.80
2018,01,15,01,26,3.80
2018,01,15,01,27,3.80
2018,01,15,01,28,3.80
2018,01,15,01,29,3.80
2018,01,15,01,30,3.80
2018,01,15,01,31,3.80
2018,01,15,01,32,3.80
2018,01,15,01,33,3.80
2018,01,15,01,34,3.80
2018,01,15,01,35,3.80
2018,01,15,01,36,3.80
2018,01,15,01,37,3.80
2018,01,15,01,38,3.80
2018,01,15,01,39,3.80
2018,01,15,01,40,3.80
2018,01,15,01,41,3.80
2018,01,15,01,42,3.80
2018,01,15,01,43,3.80
2018,01,15,01,44,3.80
2018,01,15,01,45,3.80
2018,01,15,01,46,3.80
2018,01,15,01,47,3.80
2018,01,15,01,48,3.80
2018,01,15,01,49,3.80
2018,01,15,01,50,3.80
2018,01,15,01,51,3.80
2018,01,15,01,52,3.80
2018,01,15,01,53,3.80
2018,01,15,01,54,3.80
2018,01,15,01,55,3.80
2018,01,15,01,56,3.80
2018,01,15,01,57,3.80
2018,01,15,01,58,3.80
2018,01,15,01,59,3.70
2018,01,15,02,00,3.70
2018,01,15,02,01,3.70
2018,01,15,02,02,3.70
2018,01,15,02,03,3.70
2018,01,15,02,04,3.70
2018,01,15,02,05,3.70
2018,01,15,02,06,3.70
2018,01,15,02,07,3.70
2018,01,15,02,08,3.70
2018,01,15,02,09,3.70
2018,01,15,02,10,3.70
2018,01,15,02,11,3.70
2018,01,15,02,12,3.70
2018,01,15,02,13,3.70
2018,01,15,02,14,3.70
2018,01,15,02,15,3.70
2018,01,15,02,16,3.70
2018,01,15,02,17,3.70
2018,01,15,02,18,3.70
2018,01,15,02,19,3.70
2018,01,15,02,20,3.70
2018,01,15,02,21,3.70
2018,01,15,02,22,3.70
2018,01,15,02,23,3.70
2018,01,15,02,24,3.70
2018,01,15,02,25,3.70
2018,01,15,02,26,3.70
2018,01,15,02,27,3.70
2018,01,15,02,28,3.70
2018,01,15,02,29,3.70
2018,01,15,02,30,3.70
2018,01,15,02,31,3.70
2018,01,15,02,32,3.70
2018,01,15,02,33,3.70
2018,01,15,02,34,3.70
2018,01,15,02,35,3.70
2018,01,15,02,36,3.70
2018,01,15,02,37,3.70
2018,01,15,02,38,3.70
2018,01,15,02,39,3.70
2018,01,15,02,40,3.70
2018,01,15,02,41,3.70
2018,01,15,02,42,3.70
2018,01,15,02,43,3.70
2018,01,15,02,44,3.70
2018,01,15,02,45,3.70
2018,01,15,02,46,3.70
2018,01,15,02,47,3.70
2018,01,15,02,48,3.70
2018,01,15,02,49,3.70
2018,01,15,02,50,3.70
2018,01,15,02,51,3.70
2018,01,15,02,52,3.70
2018,01,15,02,53,3.70
2018,01,15,02,54,3.70
2018,01,15,02,55,3.70
2018,01,15,02,56,3.80
2018,01,15,02,57,3.70
2018,01,15,02,58,3.70
2018,01,15,02,59,3.70
2018,01,15,03,00,3.70
2018,01,15,03,01,3.70
2018,01,15,03,02,3.70
2018,01,15,03,03,3.70
2018,01,15,03,04,3.70
2018,01,15,03,05,3.70
2018,01,15,03,06,3.70
2018,01,15,03,07,3.70
2018,01,15,03,08,3.70
2018,01,15,03,09,3.70
2018,01,15,03,10,3.70
2018,01,15,03,11,3.70
2018,01,15,03,12,3.70
2018,01,15,03,13,3.70
2018,01,15,03,14,3.70
2018,01,15,03,15,3.80
2018,01,15,03,16,3.70
2018,01,15,03,17,3.70
2018,01,15,03,18,3.70
2018,01,15,03,19,3.70
2018,01,15,03,20,3.70
2018,01,15,03,21,3.70
2018,01,15,03,22,3.70
2018,01,15,03,23,3.70
2018,01,15,03,24,3.70
2018,01,15,03,25,3.70
2018,01,15,03,26,3.70
2018,01,15,03,27,3.60
2018,01,15,03,28,3.60
2018,01,15,03,29,3.60
2018,01,15,03,30,3.60
2018,01,15,03,31,3.60
2018,01,15,03,32,3.60
2018,01,15,03,33,3.60
2018,01,15,03,34,3.60
2018,01,15,03,35,3.60
2018,01,15,03,36,3.60
2018,01,15,03,37,3.60
2018,01,15,03,38,3.60
2018,01,15,03,39,3.60
2018,01,15,03,40,3.60
2018,01,15,03,41,3.60
2018,01,15,03,42,3.60
2018,01,15,03,43,3.60
2018,01,15,03,44,3.60
2018,01,15,03,45,3.60
2018,01,15,03,46,3.60
2018,01,15,03,47,3.60
2018,01,15,03,48,3.60
2018,01,15,03,49,3.60
2018,01,15,03,50,3.60
2018,01,15,03,51,3.60
2018,01,15,03,52,3.60
2018,01,15,03,53,3.60
2018,01,15,03,54,3.60
2018,01,15,03,55,3.60
2018,01,15,03,56,3.60
2018,01,15,03,57,3.60
2018,01,15,03,58,3.60
2018,01,15,03,59,3.60
2018,01,15,04,00,3.60
2018,01,15,04,01,3.60
2018,01,15,04,02,3.60
2018,01,15,04,03,3.60
2018,01,15,04,04,3.60
2018,01,15,04,05,3.60
2018,01,15,04,06,3.60
2018,01,15,04,07,3.70
2018,01,15,04,08,3.70
2018,01,15,04,09,3.70
2018,01,15,04,10,3.70
2018,01,15,04,11,3.70
2018,01,15,04,12,3.70
2018,01,15,04,13,3.70
2018,01,15,04,14,3.70
2018,01,15,04,15,3.70
2018,01,15,04,16,3.60
2018,01,15,04,17,3.70
2018,01,15,04,18,3.70
2018,01,15,04,19,3.70
2018,01,15,04,20,3.70
2018,01,15,04,21,3.70
2018,01,15,04,22,3.70
2018,01,15,04,23,3.70
2018,01,15,04,24,3.70
2018,01,15,04,25,3.70
2018,01,15,04,26,3.70
2018,01,15,04,27,3.70
2018,01,15,04,28,3.70
2018,01,15,04,29,3.70
2018,01,15,04,30,3.70
2018,01,15,04,31,3.70
2018,01,15,04,32,3.70
2018,01,15,04,33,3.70
2018,01,15,04,34,3.70
2018,01,15,04,35,3.70
2018,01,15,04,36,3.70
2018,01,15,04,37,3.70
2018,01,15,04,38,3.70
2018,01,15,04,39,3.70
2018,01,15,04,40,3.70
2018,01,15,04,41,3.70
2018,01,15,04,42,3.70
2018,01,15,04,43,3.70
2018,01,15,04,44,3.70
2018,01,15,04,45,3.70
2018,01,15,04,46,3.70
2018,01,15,04,47,3.70
2018,01,15,04,48,3.70
2018,01,15,04,49,3.70
2018,01,15,04,50,3.80
2018,01,15,04,51,3.80
2018,01,15,04,52,3.80
2018,01,15,04,53,3.80
2018,01,15,04,54,3.80
2018,01,15,04,55,3.70
2018,01,15,04,56,3.80
2018,01,15,04,57,3.80
2018,01,15,04,58,3.80
2018,01,15,04,59,3.80
2018,01,15,05,00,3.80
2018,01,15,05,01,3.80
2018,01,15,05,02,3.80
2018,01,15,05,03,3.80
2018,01,15,05,04,3.80
2018,01,15,05,05,3.80
2018,01,15,05,06,3.80
2018,01,15,05,07,3.80
2018,01,15,05,08,3.80
2018,01,15,05,09,3.80
2018,01,15,05,10,3.80
2018,01,15,05,11,3.80
2018,01,15,05,12,3.80
2018,01,15,05,13,3.80
2018,01,15,05,14,3.80
2018,01,15,05,15,3.80
2018,01,15,05,16,3.80
2018,01,15,05,17,3.80
2018,01,15,05,18,3.80
2018,01,15,05,19,3.80
2018,01,15,05,20,3.80
2018,01,15,05,21,3.80
2018,01,15,05,22,3.80
2018,01,15,05,23,3.80
2018,01,15,05,24,3.80
2018,01,15,05,25,3.80
2018,01,15,05,26,3.80
2018,01,15,05,27,3.80
2018,01,15,05,28,3.80
2018,01,15,05,29,3.80
2018,01,15,05,30,3.80
2018,01,15,05,31,3.80
2018,01,15,05,32,3.80
2018,01,15,05,33,3.80
2018,01,15,05,34,3.80
2018,01,15,05,35,3.80
2018,01,15,05,36,3.80
2018,01,15,05,37,3.80
2018,01,15,05,38,3.80
2018,01,15,05,39,3.90
2018,01,15,05,40,3.90
2018,01,15,05,41,3.90
2018,01,15,05,42,3.90
2018,01,15,05,43,3.90
2018,01,15,05,44,3.90
2018,01,15,05,45,3.90
2018,01,15,05,46,3.90
2018,01,15,05,47,3.90
2018,01,15,05,48,3.90
2018,01,15,05,49,3.80
2018,01,15,05,50,3.80
2018,01,15,05,51,3.80
2018,01,15,05,52,3.80
2018,01,15,05,53,3.80
2018,01,15,05,54,3.80
2018,01,15,05,55,3.80
2018,01,15,05,56,3.80
2018,01,15,05,57,3.80
2018,01,15,05,58,3.80
2018,01,15,05,59,3.80
2018,01,15,06,00,3.80
2018,01,15,06,01,3.80
2018,01,15,06,02,3.80
2018,01,15,06,03,3.80
2018,01,15,06,04,3.70
2018,01,15,06,05,3.70
2018,01,15,06,06,3.80
2018,01,15,06,07,3.70
2018,01,15,06,08,3.70
2018,01,15,06,09,3.70
2018,01,15,06,10,3.70
2018,01,15,06,11,3.70
2018,01,15,06,12,3.70
2018,01,15,06,13,3.70
2018,01,15,06,14,3.70
2018,01,15,06,15,3.70
2018,01,15,06,16,3.70
2018,01,15,06,17,3.70
2018,01,15,06,18,3.70
2018,01,15,06,19,3.70
2018,01,15,06,20,3.70
2018,01,15,06,21,3.70
2018,01,15,06,22,3.80
2018,01,15,06,23,3.80
2018,01,15,06,24,3.80
2018,01,15,06,25,3.80
2018,01,15,06,26,3.80
2018,01,15,06,27,3.80
2018,01,15,06,28,3.80
2018,01,15,06,29,3.80
2018,01,15,06,30,3.80
2018,01,15,06,31,3.80
2018,01,15,06,32,3.80
2018,01,15,06,33,3.80
2018,01,15,06,34,3.80
2018,01,15,06,35,3.80
2018,01,15,06,36,3.80
2018,01,15,06,37,3.80
2018,01,15,06,38,3.80
2018,01,15,06,39,3.80
2018,01,15,06,40,3.80
2018,01,15,06,41,3.80
2018,01,15,06,42,3.80
2018,01,15,06,43,3.80
2018,01,15,06,44,3.80
2018,01,15,06,45,3.80
2018,01,15,06,46,3.80
2018,01,15,06,47,3.80
2018,01,15,06,48,3.80
2018,01,15,06,49,3.80
2018,01,15,06,50,3.80
2018,01,15,06,51,3.80
2018,01,15,06,52,3.80
2018,01,15,06,53,3.80
2018,01,15,06,54,3.80
2018,01,15,06,55,3.80
2018,01,15,06,56,3.90
2018,01,15,06,57,3.90
2018,01,15,06,58,3.90
2018,01,15,06,59,3.90
2018,01,15,07,00,3.90
2018,01,15,07,01,3.90
2018,01,15,07,02,3.90
2018,01,15,07,03,3.90
2018,01,15,07,04,3.90
2018,01,15,07,05,3.90
2018,01,15,07,06,3.90
2018,01,15,07,07,3.90
2018,01,15,07,08,3.90
2018,01,15,07,09,3.90
2018,01,15,07,10,3.90
2018,01,15,07,11,3.90
2018,01,15,07,12,3.90
2018,01,15,07,13,3.90
2018,01,15,07,14,3.90
2018,01,15,07,15,3.90
2018,01,15,07,16,3.90
2018,01,15,07,17,3.90
2018,01,15,07,18,3.90
2018,01,15,07,19,3.90
2018,01,15,07,20,3.90
2018,01,15,07,21,3.90
2018,01,15,07,22,3.90
2018,01,15,07,23,3.90
2018,01,15,07,24,3.90
2018,01,15,07,25,3.90
2018,01,15,07,26,3.90
2018,01,15,07,27,3.90
2018,01,15,07,28,3.90
2018,01,15,07,29,3.90
2018,01,15,07,30,3.90
2018,01,15,07,31,3.90
2018,01,15,07,32,3.90
2018,01,15,07,33,3.90
2018,01,15,07,34,3.90
2018,01,15,07,35,3.90
2018,01,15,07,36,3.90
2018,01,15,07,37,3.90
2018,01,15,07,38,3.90
2018,01,15,07,39,3.90
2018,01,15,07,40,3.90
2018,01,15,07,41,3.90
2018,01,15,07,42,3.90
2018,01,15,07,43,3.90
2018,01,15,07,44,3.90
2018,01,15,07,45,3.90
2018,01,15,07,46,3.90
2018,01,15,07,47,3.90
2018,01,15,07,48,3.90
2018,01,15,07,49,3.90
2018,01,15,07,50,3.90
2018,01,15,07,51,3.90
2018,01,15,07,52,3.90
2018,01,15,07,53,3.90
2018,01,15,07,54,3.90
2018,01,15,07,55,3.90
2018,01,15,07,56,3.90
2018,01,15,07,57,3.90
2018,01,15,07,58,3.90
2018,01,15,07,59,3.90
2018,01,15,08,00,3.90
2018,01,15,08,01,3.90
2018,01,15,08,02,3.90
2018,01,15,08,03,3.90
2018,01,15,08,04,3.90
2018,01,15,08,05,3.90
2018,01,15,08,06,3.90
2018,01,15,08,07,3.90
2018,01,15,08,08,3.90
2018,01,15,08,09,3.90
2018,01,15,08,10,3.90
2018,01,15,08,11,3.90
2018,01,15,08,12,3.90
2018,01,15,08,13,3.90
2018,01,15,08,14,3.90
2018,01,15,08,15,3.90
2018,01,15,08,16,3.80
2018,01,15,08,17,3.80
2018,01,15,08,18,3.80
2018,01,15,08,19,3.80
2018,01,15,08,20,3.90
2018,01,15,08,21,3.80
2018,01,15,08,22,3.90
2018,01,15,08,23,3.90
2018,01,15,08,24,3.90
2018,01,15,08,25,3.90
2018,01,15,08,26,3.90
2018,01,15,08,27,3.90
2018,01,15,08,28,3.90
2018,01,15,08,29,3.90
2018,01,15,08,30,3.90
2018,01,15,08,31,3.90
2018,01,15,08,32,3.90
2018,01,15,08,33,3.90
2018,01,15,08,34,3.90
2018,01,15,08,35,3.90
2018,01,15,08,36,3.90
2018,01,15,08,37,3.90
2018,01,15,08,38,3.90
2018,01,15,08,39,3.90
2018,01,15,08,40,3.90
2018,01,15,08,41,3.90
2018,01,15,08,42,3.90
2018,01,15,08,43,3.90
2018,01,15,08,44,3.90
2018,01,15,08,45,3.90
2018,01,15,08,46,3.90
2018,01,15,08,47,3.90
2018,01,15,08,48,3.90
2018,01,15,08,49,3.90
2018,01,15,08,50,3.90
2018,01,15,08,51,3.80
2018,01,15,08,52,3.80
2018,01,15,08,53,3.80
2018,01,15,08,54,3.80
2018,01,15,08,55,3.80
2018,01,15,08,56,3.80
2018,01,15,08,57,3.80
2018,01,15,08,58,3.80
2018,01,15,08,59,3.80
2018,01,15,09,00,3.80
2018,01,15,09,01,3.80
2018,01,15,09,02,3.80
2018,01,15,09,03,3.80
2018,01,15,09,04,3.80
2018,01,15,09,05,3.80
2018,01,15,09,06,3.80
2018,01,15,09,07,3.80
2018,01,15,09,08,3.80
2018,01,15,09,09,3.80
2018,01,15,09,10,3.80
2018,01,15,09,11,3.80
2018,01,15,09,12,3.70
2018,01,15,09,13,3.70
2018,01,15,09,14,3.70
2018,01,15,09,15,3.80
2018,01,15,09,16,3.80
2018,01,15,09,17,3.80
2018,01,15,09,18,3.80
2018,01,15,09,19,3.70
2018,01,15,09,20,3.70
2018,01,15,09,21,3.70
2018,01,15,09,22,3.70
2018,01,15,09,23,3.70
2018,01,15,09,24,3.70
2018,01,15,09,25,3.70
2018,01,15,09,26,3.70
2018,01,15,09,27,3.70
2018,01,15,09,28,3.60
2018,01,15,09,29,3.70
2018,01,15,09,30,3.70
2018,01,15,09,31,3.70
2018,01,15,09,32,3.70
2018,01,15,09,33,3.70
2018,01,15,09,34,3.70
2018,01,15,09,35,3.70
2018,01,15,09,36,3.70
2018,01,15,09,37,3.70
2018,01,15,09,38,3.70
2018,01,15,09,39,3.70
2018,01,15,09,40,3.70
2018,01,15,09,41,3.70
2018,01,15,09,42,3.70
2018,01,15,09,43,3.70
2018,01,15,09,44,3.70
2018,01,15,09,45,3.70
2018,01,15,09,46,3.70
2018,01,15,09,47,3.70
2018,01,15,09,48,3.70
2018,01,15,09,49,3.70
2018,01,15,09,50,3.60
2018,01,15,09,51,3.60
2018,01,15,09,52,3.60
2018,01,15,09,53,3.60
2018,01,15,09,54,3.60
2018,01,15,09,55,3.60
2018,01,15,09,56,3.60
2018,01,15,09,57,3.60
2018,01,15,09,58,3.60
2018,01,15,09,59,3.60
2018,01,15,10,00,3.60
2018,01,15,10,01,3.60
2018,01,15,10,02,3.60
2018,01,15,10,03,3.70
2018,01,15,10,04,3.70
2018,01,15,10,05,3.70
2018,01,15,10,06,3.70
2018,01,15,10,07,3.70
2018,01,15,10,08,3.70
2018,01,15,10,09,3.70
2018,01,15,10,10,3.70
2018,01,15,10,11,3.70
2018,01,15,10,12,3.70
2018,01,15,10,13,3.70
2018,01,15,10,14,3.80
2018,01,15,10,15,3.80
2018,01,15,10,16,3.80
2018,01,15,10,17,3.80
2018,01,15,10,18,3.80
2018,01,15,10,19,3.80
2018,01,15,10,20,3.80
2018,01,15,10,21,3.80
2018,01,15,10,22,3.80
2018,01,15,10,23,3.80
2018,01,15,10,24,3.80
2018,01,15,10,25,3.80
2018,01,15,10,26,3.80
2018,01,15,10,27,3.70
2018,01,15,10,28,3.70
2018,01,15,10,29,3.70
2018,01,15,10,30,3.70
2018,01,15,10,31,3.70
2018,01,15,10,32,3.70
2018,01,15,10,33,3.70
2018,01,15,10,34,3.70
2018,01,15,10,35,3.70
2018,01,15,10,36,3.70
2018,01,15,10,37,3.70
2018,01,15,10,38,3.70
2018,01,15,10,39,3.70
2018,01,15,10,40,3.70
2018,01,15,10,41,3.70
2018,01,15,10,42,3.80
2018,01,15,10,43,3.80
2018,01,15,10,44,3.80
2018,01,15,10,45,3.80
2018,01,15,10,46,3.80
2018,01,15,10,47,3.80
2018,01,15,10,48,3.80
2018,01,15,10,49,3.80
2018,01,15,10,50,3.80
2018,01,15,10,51,3.80
2018,01,15,10,52,3.80
2018,01,15,10,53,3.80
2018,01,15,10,54,3.80
2018,01,15,10,55,3.80
2018,01,15,10,56,3.80
2018,01,15,10,57,3.80
2018,01,15,10,58,3.80
2018,01,15,10,59,3.80
2018,01,15,11,00,3.80
2018,01,15,11,01,3.80
2018,01,15,11,02,3.90
2018,01,15,11,03,3.90
2018,01,15,11,04,3.90
2018,01,15,11,05,3.90
2018,01,15,11,06,4.00
2018,01,15,11,07,4.00
2018,01,15,11,08,4.00
2018,01,15,11,09,4.10
2018,01,15,11,10,4.10
2018,01,15,11,11,4.10
2018,01,15,11,12,4.10
2018,01,15,11,13,4.10
2018,01,15,11,14,4.10
2018,01,15,11,15,4.10
2018,01,15,11,16,4.10
2018,01,15,11,17,4.20
2018,01,15,11,18,4.20
2018,01,15,11,19,4.20
2018,01,15,11,20,4.30
2018,01,15,11,21,4.30
2018,01,15,11,22,4.30
2018,01,15,11,23,4.30
2018,01,15,11,24,4.40
2018,01,15,11,25,4.40
2018,01,15,11,26,4.40
2018,01,15,11,27,4.40
2018,01,15,11,28,4.50
2018,01,15,11,29,4.50
2018,01,15,11,30,4.50
2018,01,15,11,31,4.50
2018,01,15,11,32,4.60
2018,01,15,11,33,4.60
2018,01,15,11,34,4.70
2018,01,15,11,35,4.70
2018,01,15,11,36,4.80
2018,01,15,11,37,4.90
2018,01,15,11,38,4.90
2018,01,15,11,39,5.00
2018,01,15,11,40,5.10
2018,01,15,11,41,5.10
2018,01,15,11,42,5.10
2018,01,15,11,43,5.20
2018,01,15,11,44,5.10
2018,01,15,11,45,5.10
2018,01,15,11,46,5.10
2018,01,15,11,47,5.00
2018,01,15,11,48,5.00
2018,01,15,11,49,5.00
2018,01,15,11,50,5.00
2018,01,15,11,51,5.00
2018,01,15,11,52,5.10
2018,01,15,11,53,5.10
2018,01,15,11,54,5.10
2018,01,15,11,55,5.10
2018,01,15,11,56,5.20
2018,01,15,11,57,5.20
2018,01,15,11,58,5.30
2018,01,15,11,59,5.30
2018,01,15,12,00,5.30
2018,01,15,12,01,5.40
2018,01,15,12,02,5.40
2018,01,15,12,03,5.50
2018,01,15,12,04,5.50
2018,01,15,12,05,5.60
2018,01,15,12,06,5.60
2018,01,15,12,07,5.60
2018,01,15,12,08,5.70
2018,01,15,12,09,5.70
2018,01,15,12,10,5.80
2018,01,15,12,11,5.80
2018,01,15,12,12,5.80
2018,01,15,12,13,5.80
2018,01,15,12,14,5.80
2018,01,15,12,15,5.80
2018,01,15,12,16,5.80
2018,01,15,12,17,5.80
2018,01,15,12,18,5.80
2018,01,15,12,19,5.80
2018,01,15,12,20,5.80
2018,01,15,12,21,5.90
2018,01,15,12,22,6.00
2018,01,15,12,23,6.00
2018,01,15,12,24,6.00
2018,01,15,12,25,6.10
2018,01,15,12,26,6.10
2018,01,15,12,27,6.10
2018,01,15,12,28,6.10
2018,01,15,12,29,6.20
2018,01,15,12,30,6.30
2018,01,15,12,31,6.30
2018,01,15,12,32,6.30
2018,01,15,12,33,6.30
2018,01,15,12,34,6.20
2018,01,15,12,35,6.20
2018,01,15,12,36,6.30
2018,01,15,12,37,6.30
2018,01,15,12,38,6.30
2018,01,15,12,39,6.40
2018,01,15,12,40,6.40
2018,01,15,12,41,6.40
2018,01,15,12,42,6.40
2018,01,15,12,43,6.50
2018,01,15,12,44,6.50
2018,01,15,12,45,6.60
2018,01,15,12,46,6.70
2018,01,15,12,47,6.80
2018,01,15,12,48,6.80
2018,01,15,12,49,6.90
2018,01,15,12,50,7.00
2018,01,15,12,51,7.00
2018,01,15,12,52,7.00
2018,01,15,12,53,7.00
2018,01,15,12,54,6.90
2018,01,15,12,55,6.90
2018,01,15,12,56,6.90
2018,01,15,12,57,6.90
2018,01,15,12,58,6.90
2018,01,15,12,59,6.90
2018,01,15,13,00,7.00
2018,01,15,13,01,7.00
2018,01,15,13,02,7.00
2018,01,15,13,03,7.00
2018,01,15,13,04,7.10
2018,01,15,13,05,7.20
2018,01,15,13,06,7.20
2018,01,15,13,07,7.20
2018,01,15,13,08,7.20
2018,01,15,13,09,7.30
2018,01,15,13,10,7.30
2018,01,15,13,11,7.30
2018,01,15,13,12,7.30
2018,01,15,13,13,7.30
2018,01,15,13,14,7.30
2018,01,15,13,15,7.30
2018,01,15,13,16,7.20
2018,01,15,13,17,7.20
2018,01,15,13,18,7.20
2018,01,15,13,19,7.20
2018,01,15,13,20,7.20
2018,01,15,13,21,7.20
2018,01,15,13,22,7.20
2018,01,15,13,23,7.20
2018,01,15,13,24,7.20
2018,01,15,13,25,7.20
2018,01,15,13,26,7.20
2018,01,15,13,27,7.20
2018,01,15,13,28,7.10
2018,01,15,13,29,7.10
2018,01,15,13,30,7.10
2018,01,15,13,31,7.10
2018,01,15,13,32,7.10
2018,01,15,13,33,7.20
2018,01,15,13,34,7.20
2018,01,15,13,35,7.30
2018,01,15,13,36,7.40
2018,01,15,13,37,7.40
2018,01,15,13,38,7.50
2018,01,15,13,39,7.60
2018,01,15,13,40,7.70
2018,01,15,13,41,7.80
2018,01,15,13,42,7.90
2018,01,15,13,43,8.00
2018,01,15,13,44,8.10
2018,01,15,13,45,8.20
2018,01,15,13,46,8.20
2018,01,15,13,47,8.30
2018,01,15,13,48,8.30
2018,01,15,13,49,8.20
2018,01,15,13,50,8.10
2018,01,15,13,51,8.10
2018,01,15,13,52,8.00
2018,01,15,13,53,8.00
2018,01,15,13,54,8.00
2018,01,15,13,55,8.00
2018,01,15,13,56,8.00
2018,01,15,13,57,8.10
2018,01,15,13,58,8.20
2018,01,15,13,59,8.30
2018,01,15,14,00,8.40
2018,01,15,14,01,8.50
2018,01,15,14,02,8.60
2018,01,15,14,03,8.70
2018,01,15,14,04,8.80
2018,01,15,14,05,8.90
2018,01,15,14,06,9.00
2018,01,15,14,07,9.10
2018,01,15,14,08,9.20
2018,01,15,14,09,9.30
2018,01,15,14,10,9.40
2018,01,15,14,11,9.50
2018,01,15,14,12,9.50
2018,01,15,14,13,9.60
2018,01,15,14,14,9.70
2018,01,15,14,15,9.70
2018,01,15,14,16,9.70
2018,01,15,14,17,9.70
2018,01,15,14,18,9.70
2018,01,15,14,19,9.70
2018,01,15,14,20,9.70
2018,01,15,14,21,9.70
2018,01,15,14,22,9.70
2018,01,15,14,23,9.80
2018,01,15,14,24,9.80
2018,01,15,14,25,9.90
2018,01,15,14,26,9.90
2018,01,15,14,27,10.00
2018,01,15,14,28,10.00
2018,01,15,14,29,10.10
2018,01,15,14,30,10.10
2018,01,15,14,31,10.10
2018,01,15,14,32,10.10
2018,01,15,14,33,10.10
2018,01,15,14,34,10.10
2018,01,15,14,35,10.10
2018,01,15,14,36,10.10
2018,01,15,14,37,10.00
2018,01,15,14,38,10.10
2018,01,15,14,39,10.10
2018,01,15,14,40,10.20
2018,01,15,14,41,10.30
2018,01,15,14,42,10.40
2018,01,15,14,43,10.40
2018,01,15,14,44,10.50
2018,01,15,14,45,10.60
2018,01,15,14,46,10.60
2018,01,15,14,47,10.70
2018,01,15,14,48,10.80
2018,01,15,14,49,10.90
2018,01,15,14,50,11.10
2018,01,15,14,51,11.20
2018,01,15,14,52,11.40
2018,01,15,14,53,11.50
2018,01,15,14,54,11.60
2018,01,15,14,55,11.60
2018,01,15,14,56,11.70
2018,01,15,14,57,11.80
2018,01,15,14,58,11.80
2018,01,15,14,59,11.80
2018,01,15,15,00,11.90
2018,01,15,15,01,11.90
2018,01,15,15,02,12.00
2018,01,15,15,03,12.00
2018,01,15,15,04,11.90
2018,01,15,15,05,11.90
2018,01,15,15,06,11.90
2018,01,15,15,07,11.90
2018,01,15,15,08,11.90
2018,01,15,15,09,11.80
2018,01,15,15,10,11.80
2018,01,15,15,11,11.90
2018,01,15,15,12,11.90
2018,01,15,15,13,11.90
2018,01,15,15,14,12.00
2018,01,15,15,15,12.00
2018,01,15,15,16,12.10
2018,01,15,15,17,12.10
2018,01,15,15,18,12.10
2018,01,15,15,19,12.10
2018,01,15,15,20,12.20
2018,01,15,15,21,12.20
2018,01,15,15,22,12.30
2018,01,15,15,23,12.30
2018,01,15,15,24,12.30
2018,01,15,15,25,12.40
2018,01,15,15,26,12.50
2018,01,15,15,27,12.50
2018,01,15,15,28,12.30
2018,01,15,15,29,12.10
2018,01,15,15,30,12.00
2018,01,15,15,31,11.90
2018,01,15,15,32,11.80
2018,01,15,15,33,11.70
2018,01,15,15,34,11.60
2018,01,15,15,35,11.40
2018,01,15,15,36,11.10
2018,01,15,15,37,10.80
2018,01,15,15,38,10.50
2018,01,15,15,39,10.30
2018,01,15,15,40,10.10
2018,01,15,15,41,10.00
2018,01,15,15,42,9.90
2018,01,15,15,43,9.90
2018,01,15,15,44,9.90
2018,01,15,15,45,9.90
2018,01,15,15,46,9.80
2018,01,15,15,47,9.80
2018,01,15,15,48,9.80
2018,01,15,15,49,9.80
2018,01,15,15,50,9.80
2018,01,15,15,51,9.80
2018,01,15,15,52,9.80
2018,01,15,15,53,9.80
2018,01,15,15,54,9.80
2018,01,15,15,55,9.80
2018,01,15,15,56,9.80
2018,01,15,15,57,9.80
2018,01,15,15,58,9.80
2018,01,15,15,59,9.80
2018,01,15,16,00,9.70
2018,01,15,16,01,9.70
2018,01,15,16,02,9.70
2018,01,15,16,03,9.70
2018,01,15,16,04,9.70
2018,01,15,16,05,9.60
2018,01,15,16,06,9.60
2018,01,15,16,07,9.60
2018,01,15,16,08,9.60
2018,01,15,16,09,9.50
2018,01,15,16,10,9.50
2018,01,15,16,11,9.50
2018,01,15,16,12,9.40
2018,01,15,16,13,9.40
2018,01,15,16,14,9.30
2018,01,15,16,15,9.30
2018,01,15,16,16,9.20
2018,01,15,16,17,9.20
2018,01,15,16,18,9.10
2018,01,15,16,19,9.10
2018,01,15,16,20,9.00
2018,01,15,16,21,9.00
2018,01,15,16,22,9.00
2018,01,15,16,23,9.00
2018,01,15,16,24,9.00
2018,01,15,16,25,9.00
2018,01,15,16,26,9.00
2018,01,15,16,27,9.00
2018,01,15,16,28,9.00
2018,01,15,16,29,9.00
2018,01,15,16,30,9.00
2018,01,15,16,31,9.00
2018,01,15,16,32,8.90
2018,01,15,16,33,8.90
2018,01,15,16,34,8.90
2018,01,15,16,35,8.80
2018,01,15,16,36,8.80
2018,01,15,16,37,8.80
2018,01,15,16,38,8.70
2018,01,15,16,39,8.70
2018,01,15,16,40,8.70
2018,01,15,16,41,8.70
2018,01,15,16,42,8.70
2018,01,15,16,43,8.70
2018,01,15,16,44,8.70
2018,01,15,16,45,8.60
2018,01,15,16,46,8.60
2018,01,15,16,47,8.70
2018,01,15,16,48,8.70
2018,01,15,16,49,8.70
2018,01,15,16,50,8.70
2018,01,15,16,51,8.70
2018,01,15,16,52,8.70
2018,01,15,16,53,8.70
2018,01,15,16,54,8.80
2018,01,15,16,55,8.80
2018,01,15,16,56,8.80
2018,01,15,16,57,8.80
2018,01,15,16,58,8.80
2018,01,15,16,59,8.80
2018,01,15,17,00,8.80
2018,01,15,17,01,8.80
2018,01,15,17,02,8.80
2018,01,15,17,03,8.80
2018,01,15,17,04,8.80
2018,01,15,17,05,8.80
2018,01,15,17,06,8.80
2018,01,15,17,07,8.80
2018,01,15,17,08,8.70
2018,01,15,17,09,8.70
2018,01,15,17,10,8.70
2018,01,15,17,11,8.70
2018,01,15,17,12,8.70
2018,01,15,17,13,8.70
2018,01,15,17,14,8.70
2018,01,15,17,15,8.60
2018,01,15,17,16,8.60
2018,01,15,17,17,8.50
2018,01,15,17,18,8.50
2018,01,15,17,19,8.40
2018,01,15,17,20,8.40
2018,01,15,17,21,8.40
2018,01,15,17,22,8.30
2018,01,15,17,23,8.30
2018,01,15,17,24,8.30
2018,01,15,17,25,8.30
2018,01,15,17,26,8.30
2018,01,15,17,27,8.30
2018,01,15,17,28,8.30
2018,01,15,17,29,8.30
2018,01,15,17,30,8.30
2018,01,15,17,31,8.30
2018,01,15,17,32,8.30
2018,01,15,17,33,8.30
2018,01,15,17,34,8.30
2018,01,15,17,35,8.40
2018,01,15,17,36,8.40
2018,01,15,17,37,8.40
2018,01,15,17,38,8.40
2018,01,15,17,39,8.40
2018,01,15,17,40,8.40
2018,01,15,17,41,8.40
2018,01,15,17,42,8.40
2018,01,15,17,43,8.30
2018,01,15,17,44,8.30
2018,01,15,17,45,8.30
2018,01,15,17,46,8.30
2018,01,15,17,47,8.20
2018,01,15,17,48,8.20
2018,01,15,17,49,8.20
2018,01,15,17,50,8.20
2018,01,15,17,51,8.20
2018,01,15,17,52,8.20
2018,01,15,17,53,8.20
2018,01,15,17,54,8.20
2018,01,15,17,55,8.20
2018,01,15,17,56,8.20
2018,01,15,17,57,8.20
2018,01,15,17,58,8.20
2018,01,15,17,59,8.20
2018,01,15,18,00,8.10
2018,01,15,18,01,8.10
2018,01,15,18,02,8.10
2018,01,15,18,03,8.10